Year,Month,Day,Hour,Minute,Value (Times are PST for temperature in C)
2013,07,09,00,00,14.60
2013,07,09,00,01,14.60
2013,07,09,00,02,14.60
2013,07,09,00,03,14.50
2013,07,09,00,04,14.50
2013,07,09,00,05,14.40
2013,07,09,00,06,14.40
2013,07,09,00,07,14.40
2013,07,09,00,08,14.40
2013,07,09,00,09,14.40
2013,07,09,00,10,14.30
2013,07,09,00,11,14.30
2013,07,09,00,12,14.30
2013,07,09,00,13,14.30
2013,07,09,00,14,14.20
2013,07,09,00,15,14.20
2013,07,09,00,16,14.20
2013,07,09,00,17,14.20
2013,07,09,00,18,14.20
2013,07,09,00,19,14.10
2013,07,09,00,20,14.10
2013,07,09,00,21,14.10
2013,07,09,00,22,14.10
2013,07,09,00,23,14.10
2013,07,09,00,24,14.10
2013,07,09,00,25,14.10
2013,07,09,00,26,14.00
2013,07,09,00,27,14.00
2013,07,09,00,28,14.00
2013,07,09,00,29,14.00
2013,07,09,00,30,13.90
2013,07,09,00,31,13.90
2013,07,09,00,32,13.90
2013,07,09,00,33,13.90
2013,07,09,00,34,13.90
2013,07,09,00,35,13.90
2013,07,09,00,36,13.80
2013,07,09,00,37,13.80
2013,07,09,00,38,13.80
2013,07,09,00,39,13.80
2013,07,09,00,40,13.80
2013,07,09,00,41,13.80
2013,07,09,00,42,13.70
2013,07,09,00,43,13.70
2013,07,09,00,44,13.70
2013,07,09,00,45,13.70
2013,07,09,00,46,13.70
2013,07,09,00,47,13.70
2013,07,09,00,48,13.70
2013,07,09,00,49,13.60
2013,07,09,00,50,13.60
2013,07,09,00,51,13.60
2013,07,09,00,52,13.60
2013,07,09,00,53,13.60
2013,07,09,00,54,13.60
2013,07,09,00,55,13.50
2013,07,09,00,56,13.50
2013,07,09,00,57,13.50
2013,07,09,00,58,13.50
2013,07,09,00,59,13.50
2013,07,09,01,00,13.40
2013,07,09,01,01,13.40
2013,07,09,01,02,13.40
2013,07,09,01,03,13.40
2013,07,09,01,04,13.40
2013,07,09,01,05,13.40
2013,07,09,01,06,13.40
2013,07,09,01,07,13.40
2013,07,09,01,08,13.40
2013,07,09,01,09,13.30
2013,07,09,01,10,13.30
2013,07,09,01,11,13.30
2013,07,09,01,12,13.30
2013,07,09,01,13,13.30
2013,07,09,01,14,13.30
2013,07,09,01,15,13.30
2013,07,09,01,16,13.30
2013,07,09,01,17,13.30
2013,07,09,01,18,13.30
2013,07,09,01,19,13.20
2013,07,09,01,20,13.20
2013,07,09,01,21,13.20
2013,07,09,01,22,13.20
2013,07,09,01,23,13.20
2013,07,09,01,24,13.20
2013,07,09,01,25,13.10
2013,07,09,01,26,13.10
2013,07,09,01,27,13.10
2013,07,09,01,28,13.10
2013,07,09,01,29,13.10
2013,07,09,01,30,13.10
2013,07,09,01,31,13.10
2013,07,09,01,32,13.10
2013,07,09,01,33,13.10
2013,07,09,01,34,13.10
2013,07,09,01,35,13.10
2013,07,09,01,36,13.10
2013,07,09,01,37,13.10
2013,07,09,01,38,13.10
2013,07,09,01,39,13.10
2013,07,09,01,40,13.00
2013,07,09,01,41,13.00
2013,07,09,01,42,13.00
2013,07,09,01,43,13.00
2013,07,09,01,44,12.90
2013,07,09,01,45,12.90
2013,07,09,01,46,12.90
2013,07,09,01,47,12.90
2013,07,09,01,48,12.90
2013,07,09,01,49,12.90
2013,07,09,01,50,12.90
2013,07,09,01,51,12.90
2013,07,09,01,52,12.90
2013,07,09,01,53,12.80
2013,07,09,01,54,12.80
2013,07,09,01,55,12.80
2013,07,09,01,56,12.80
2013,07,09,01,57,12.80
2013,07,09,01,58,12.80
2013,07,09,01,59,12.80
2013,07,09,02,00,12.80
2013,07,09,02,01,12.80
2013,07,09,02,02,12.70
2013,07,09,02,03,12.70
2013,07,09,02,04,12.70
2013,07,09,02,05,12.70
2013,07,09,02,06,12.70
2013,07,09,02,07,12.70
2013,07,09,02,08,12.60
2013,07,09,02,09,12.60
2013,07,09,02,10,12.60
2013,07,09,02,11,12.60
2013,07,09,02,12,12.60
2013,07,09,02,13,12.60
2013,07,09,02,14,12.60
2013,07,09,02,15,12.60
2013,07,09,02,16,12.60
2013,07,09,02,17,12.60
2013,07,09,02,18,12.50
2013,07,09,02,19,12.50
2013,07,09,02,20,12.50
2013,07,09,02,21,12.50
2013,07,09,02,22,12.50
2013,07,09,02,23,12.50
2013,07,09,02,24,12.40
2013,07,09,02,25,12.40
2013,07,09,02,26,12.40
2013,07,09,02,27,12.40
2013,07,09,02,28,12.40
2013,07,09,02,29,12.40
2013,07,09,02,30,12.40
2013,07,09,02,31,12.30
2013,07,09,02,32,12.30
2013,07,09,02,33,12.30
2013,07,09,02,34,12.30
2013,07,09,02,35,12.30
2013,07,09,02,36,12.30
2013,07,09,02,37,12.30
2013,07,09,02,38,12.30
2013,07,09,02,39,12.30
2013,07,09,02,40,12.30
2013,07,09,02,41,12.30
2013,07,09,02,42,12.30
2013,07,09,02,43,12.30
2013,07,09,02,44,12.20
2013,07,09,02,45,12.20
2013,07,09,02,46,12.20
2013,07,09,02,47,12.20
2013,07,09,02,48,12.20
2013,07,09,02,49,12.20
2013,07,09,02,50,12.20
2013,07,09,02,51,12.20
2013,07,09,02,52,12.20
2013,07,09,02,53,12.20
2013,07,09,02,54,12.20
2013,07,09,02,55,12.10
2013,07,09,02,56,12.10
2013,07,09,02,57,12.10
2013,07,09,02,58,12.10
2013,07,09,02,59,12.10
2013,07,09,03,00,12.00
2013,07,09,03,01,12.00
2013,07,09,03,02,12.00
2013,07,09,03,03,12.00
2013,07,09,03,04,11.90
2013,07,09,03,05,11.90
2013,07,09,03,06,11.90
2013,07,09,03,07,11.90
2013,07,09,03,08,11.90
2013,07,09,03,09,11.90
2013,07,09,03,10,11.90
2013,07,09,03,11,11.90
2013,07,09,03,12,11.90
2013,07,09,03,13,11.90
2013,07,09,03,14,11.90
2013,07,09,03,15,11.90
2013,07,09,03,16,11.90
2013,07,09,03,17,11.80
2013,07,09,03,18,11.80
2013,07,09,03,19,11.80
2013,07,09,03,20,11.80
2013,07,09,03,21,11.80
2013,07,09,03,22,11.80
2013,07,09,03,23,11.80
2013,07,09,03,24,11.80
2013,07,09,03,25,11.70
2013,07,09,03,26,11.70
2013,07,09,03,27,11.70
2013,07,09,03,28,11.70
2013,07,09,03,29,11.70
2013,07,09,03,30,11.70
2013,07,09,03,31,11.70
2013,07,09,03,32,11.70
2013,07,09,03,33,11.70
2013,07,09,03,34,11.70
2013,07,09,03,35,11.70
2013,07,09,03,36,11.70
2013,07,09,03,37,11.70
2013,07,09,03,38,11.70
2013,07,09,03,39,11.70
2013,07,09,03,40,11.70
2013,07,09,03,41,11.70
2013,07,09,03,42,11.70
2013,07,09,03,43,11.70
2013,07,09,03,44,11.70
2013,07,09,03,45,11.70
2013,07,09,03,46,11.70
2013,07,09,03,47,11.70
2013,07,09,03,48,11.70
2013,07,09,03,49,11.60
2013,07,09,03,50,11.60
2013,07,09,03,51,11.60
2013,07,09,03,52,11.60
2013,07,09,03,53,11.60
2013,07,09,03,54,11.60
2013,07,09,03,55,11.60
2013,07,09,03,56,11.60
2013,07,09,03,57,11.60
2013,07,09,03,58,11.60
2013,07,09,03,59,11.60
2013,07,09,04,00,11.60
2013,07,09,04,01,11.50
2013,07,09,04,02,11.50
2013,07,09,04,03,11.50
2013,07,09,04,04,11.50
2013,07,09,04,05,11.50
2013,07,09,04,06,11.40
2013,07,09,04,07,11.40
2013,07,09,04,08,11.40
2013,07,09,04,09,11.40
2013,07,09,04,10,11.40
2013,07,09,04,11,11.40
2013,07,09,04,12,11.30
2013,07,09,04,13,11.30
2013,07,09,04,14,11.30
2013,07,09,04,15,11.30
2013,07,09,04,16,11.30
2013,07,09,04,17,11.30
2013,07,09,04,18,11.30
2013,07,09,04,19,11.30
2013,07,09,04,20,11.30
2013,07,09,04,21,11.30
2013,07,09,04,22,11.30
2013,07,09,04,23,11.30
2013,07,09,04,24,11.30
2013,07,09,04,25,11.30
2013,07,09,04,26,11.30
2013,07,09,04,27,11.30
2013,07,09,04,28,11.30
2013,07,09,04,29,11.30
2013,07,09,04,30,11.30
2013,07,09,04,31,11.30
2013,07,09,04,32,11.30
2013,07,09,04,33,11.30
2013,07,09,04,34,11.30
2013,07,09,04,35,11.20
2013,07,09,04,36,11.20
2013,07,09,04,37,11.20
2013,07,09,04,38,11.20
2013,07,09,04,39,11.20
2013,07,09,04,40,11.20
2013,07,09,04,41,11.20
2013,07,09,04,42,11.20
2013,07,09,04,43,11.20
2013,07,09,04,44,11.20
2013,07,09,04,45,11.20
2013,07,09,04,46,11.20
2013,07,09,04,47,11.20
2013,07,09,04,48,11.20
2013,07,09,04,49,11.20
2013,07,09,04,50,11.10
2013,07,09,04,51,11.10
2013,07,09,04,52,11.10
2013,07,09,04,53,11.10
2013,07,09,04,54,11.10
2013,07,09,04,55,11.10
2013,07,09,04,56,11.10
2013,07,09,04,57,11.10
2013,07,09,04,58,11.10
2013,07,09,04,59,11.10
2013,07,09,05,00,11.10
2013,07,09,05,01,11.00
2013,07,09,05,02,11.00
2013,07,09,05,03,11.00
2013,07,09,05,04,11.00
2013,07,09,05,05,10.90
2013,07,09,05,06,10.90
2013,07,09,05,07,10.90
2013,07,09,05,08,10.90
2013,07,09,05,09,10.90
2013,07,09,05,10,10.90
2013,07,09,05,11,10.90
2013,07,09,05,12,11.00
2013,07,09,05,13,11.00
2013,07,09,05,14,11.00
2013,07,09,05,15,11.00
2013,07,09,05,16,11.00
2013,07,09,05,17,11.00
2013,07,09,05,18,11.00
2013,07,09,05,19,11.00
2013,07,09,05,20,11.00
2013,07,09,05,21,11.00
2013,07,09,05,22,11.00
2013,07,09,05,23,11.00
2013,07,09,05,24,11.00
2013,07,09,05,25,11.00
2013,07,09,05,26,11.00
2013,07,09,05,27,11.00
2013,07,09,05,28,11.00
2013,07,09,05,29,11.00
2013,07,09,05,30,11.10
2013,07,09,05,31,11.10
2013,07,09,05,32,11.10
2013,07,09,05,33,11.10
2013,07,09,05,34,11.10
2013,07,09,05,35,11.10
2013,07,09,05,36,11.10
2013,07,09,05,37,11.10
2013,07,09,05,38,11.10
2013,07,09,05,39,11.10
2013,07,09,05,40,11.10
2013,07,09,05,41,11.10
2013,07,09,05,42,11.10
2013,07,09,05,43,11.10
2013,07,09,05,44,11.10
2013,07,09,05,45,11.10
2013,07,09,05,46,11.10
2013,07,09,05,47,11.10
2013,07,09,05,48,11.10
2013,07,09,05,49,11.10
2013,07,09,05,50,11.10
2013,07,09,05,51,11.10
2013,07,09,05,52,11.10
2013,07,09,05,53,11.10
2013,07,09,05,54,11.10
2013,07,09,05,55,11.10
2013,07,09,05,56,11.10
2013,07,09,05,57,11.20
2013,07,09,05,58,11.20
2013,07,09,05,59,11.20
2013,07,09,06,00,11.20
2013,07,09,06,01,11.20
2013,07,09,06,02,11.20
2013,07,09,06,03,11.20
2013,07,09,06,04,11.20
2013,07,09,06,05,11.20
2013,07,09,06,06,11.20
2013,07,09,06,07,11.20
2013,07,09,06,08,11.20
2013,07,09,06,09,11.20
2013,07,09,06,10,11.20
2013,07,09,06,11,11.20
2013,07,09,06,12,11.30
2013,07,09,06,13,11.30
2013,07,09,06,14,11.30
2013,07,09,06,15,11.30
2013,07,09,06,16,11.30
2013,07,09,06,17,11.30
2013,07,09,06,18,11.30
2013,07,09,06,19,11.30
2013,07,09,06,20,11.30
2013,07,09,06,21,11.30
2013,07,09,06,22,11.30
2013,07,09,06,23,11.40
2013,07,09,06,24,11.40
2013,07,09,06,25,11.40
2013,07,09,06,26,11.40
2013,07,09,06,27,11.40
2013,07,09,06,28,11.40
2013,07,09,06,29,11.50
2013,07,09,06,30,11.50
2013,07,09,06,31,11.50
2013,07,09,06,32,11.60
2013,07,09,06,33,11.60
2013,07,09,06,34,11.60
2013,07,09,06,35,11.60
2013,07,09,06,36,11.70
2013,07,09,06,37,11.70
2013,07,09,06,38,11.70
2013,07,09,06,39,11.80
2013,07,09,06,40,11.80
2013,07,09,06,41,11.80
2013,07,09,06,42,11.80
2013,07,09,06,43,11.80
2013,07,09,06,44,11.90
2013,07,09,06,45,11.90
2013,07,09,06,46,11.90
2013,07,09,06,47,12.00
2013,07,09,06,48,12.10
2013,07,09,06,49,12.10
2013,07,09,06,50,12.10
2013,07,09,06,51,12.20
2013,07,09,06,52,12.20
2013,07,09,06,53,12.20
2013,07,09,06,54,12.20
2013,07,09,06,55,12.30
2013,07,09,06,56,12.30
2013,07,09,06,57,12.30
2013,07,09,06,58,12.30
2013,07,09,06,59,12.30
2013,07,09,07,00,12.40
2013,07,09,07,01,12.40
2013,07,09,07,02,12.40
2013,07,09,07,03,12.40
2013,07,09,07,04,12.40
2013,07,09,07,05,12.50
2013,07,09,07,06,12.50
2013,07,09,07,07,12.50
2013,07,09,07,08,12.60
2013,07,09,07,09,12.60
2013,07,09,07,10,12.60
2013,07,09,07,11,12.70
2013,07,09,07,12,12.70
2013,07,09,07,13,12.80
2013,07,09,07,14,12.80
2013,07,09,07,15,12.90
2013,07,09,07,16,13.00
2013,07,09,07,17,13.00
2013,07,09,07,18,13.10
2013,07,09,07,19,13.20
2013,07,09,07,20,13.20
2013,07,09,07,21,13.30
2013,07,09,07,22,13.30
2013,07,09,07,23,13.40
2013,07,09,07,24,13.50
2013,07,09,07,25,13.50
2013,07,09,07,26,13.50
2013,07,09,07,27,13.60
2013,07,09,07,28,13.60
2013,07,09,07,29,13.70
2013,07,09,07,30,13.70
2013,07,09,07,31,13.70
2013,07,09,07,32,13.70
2013,07,09,07,33,13.80
2013,07,09,07,34,13.80
2013,07,09,07,35,13.80
2013,07,09,07,36,13.80
2013,07,09,07,37,13.80
2013,07,09,07,38,13.80
2013,07,09,07,39,13.80
2013,07,09,07,40,13.90
2013,07,09,07,41,13.90
2013,07,09,07,42,13.90
2013,07,09,07,43,13.90
2013,07,09,07,44,14.00
2013,07,09,07,45,14.00
2013,07,09,07,46,14.00
2013,07,09,07,47,14.00
2013,07,09,07,48,14.10
2013,07,09,07,49,14.10
2013,07,09,07,50,14.10
2013,07,09,07,51,14.20
2013,07,09,07,52,14.20
2013,07,09,07,53,14.30
2013,07,09,07,54,14.30
2013,07,09,07,55,14.40
2013,07,09,07,56,14.40
2013,07,09,07,57,14.40
2013,07,09,07,58,14.40
2013,07,09,07,59,14.50
2013,07,09,08,00,14.50
2013,07,09,08,01,14.50
2013,07,09,08,02,14.60
2013,07,09,08,03,14.60
2013,07,09,08,04,14.60
2013,07,09,08,05,14.60
2013,07,09,08,06,14.70
2013,07,09,08,07,14.70
2013,07,09,08,08,14.70
2013,07,09,08,09,14.80
2013,07,09,08,10,14.80
2013,07,09,08,11,14.90
2013,07,09,08,12,14.90
2013,07,09,08,13,15.00
2013,07,09,08,14,15.10
2013,07,09,08,15,15.10
2013,07,09,08,16,15.20
2013,07,09,08,17,15.30
2013,07,09,08,18,15.40
2013,07,09,08,19,15.50
2013,07,09,08,20,15.60
2013,07,09,08,21,15.60
2013,07,09,08,22,15.70
2013,07,09,08,23,15.80
2013,07,09,08,24,15.90
2013,07,09,08,25,15.90
2013,07,09,08,26,16.00
2013,07,09,08,27,16.00
2013,07,09,08,28,16.10
2013,07,09,08,29,16.10
2013,07,09,08,30,16.20
2013,07,09,08,31,16.20
2013,07,09,08,32,16.30
2013,07,09,08,33,16.30
2013,07,09,08,34,16.30
2013,07,09,08,35,16.40
2013,07,09,08,36,16.40
2013,07,09,08,37,16.40
2013,07,09,08,38,16.40
2013,07,09,08,39,16.40
2013,07,09,08,40,16.40
2013,07,09,08,41,16.50
2013,07,09,08,42,16.60
2013,07,09,08,43,16.60
2013,07,09,08,44,16.70
2013,07,09,08,45,16.80
2013,07,09,08,46,16.80
2013,07,09,08,47,16.90
2013,07,09,08,48,17.00
2013,07,09,08,49,17.00
2013,07,09,08,50,17.10
2013,07,09,08,51,17.20
2013,07,09,08,52,17.20
2013,07,09,08,53,17.30
2013,07,09,08,54,17.30
2013,07,09,08,55,17.30
2013,07,09,08,56,17.40
2013,07,09,08,57,17.40
2013,07,09,08,58,17.40
2013,07,09,08,59,17.40
2013,07,09,09,00,17.40
2013,07,09,09,01,17.40
2013,07,09,09,02,17.40
2013,07,09,09,03,17.40
2013,07,09,09,04,17.40
2013,07,09,09,05,17.40
2013,07,09,09,06,17.30
2013,07,09,09,07,17.30
2013,07,09,09,08,17.30
2013,07,09,09,09,17.30
2013,07,09,09,10,17.20
2013,07,09,09,11,17.20
2013,07,09,09,12,17.20
2013,07,09,09,13,17.20
2013,07,09,09,14,17.20
2013,07,09,09,15,17.20
2013,07,09,09,16,17.20
2013,07,09,09,17,17.20
2013,07,09,09,18,17.20
2013,07,09,09,19,17.20
2013,07,09,09,20,17.30
2013,07,09,09,21,17.30
2013,07,09,09,22,17.30
2013,07,09,09,23,17.30
2013,07,09,09,24,17.40
2013,07,09,09,25,17.40
2013,07,09,09,26,17.40
2013,07,09,09,27,17.50
2013,07,09,09,28,17.50
2013,07,09,09,29,17.60
2013,07,09,09,30,17.60
2013,07,09,09,31,17.60
2013,07,09,09,32,17.60
2013,07,09,09,33,17.60
2013,07,09,09,34,17.60
2013,07,09,09,35,17.60
2013,07,09,09,36,17.70
2013,07,09,09,37,17.70
2013,07,09,09,38,17.70
2013,07,09,09,39,17.70
2013,07,09,09,40,17.70
2013,07,09,09,41,17.70
2013,07,09,09,42,17.70
2013,07,09,09,43,17.70
2013,07,09,09,44,17.70
2013,07,09,09,45,17.70
2013,07,09,09,46,17.70
2013,07,09,09,47,17.70
2013,07,09,09,48,17.70
2013,07,09,09,49,17.60
2013,07,09,09,50,17.70
2013,07,09,09,51,17.70
2013,07,09,09,52,17.70
2013,07,09,09,53,17.80
2013,07,09,09,54,17.80
2013,07,09,09,55,17.90
2013,07,09,09,56,18.00
2013,07,09,09,57,18.00
2013,07,09,09,58,18.10
2013,07,09,09,59,18.20
2013,07,09,10,00,18.20
2013,07,09,10,01,18.20
2013,07,09,10,02,18.20
2013,07,09,10,03,18.20
2013,07,09,10,04,18.20
2013,07,09,10,05,18.20
2013,07,09,10,06,18.20
2013,07,09,10,07,18.20
2013,07,09,10,08,18.30
2013,07,09,10,09,18.30
2013,07,09,10,10,18.30
2013,07,09,10,11,18.40
2013,07,09,10,12,18.50
2013,07,09,10,13,18.50
2013,07,09,10,14,18.60
2013,07,09,10,15,18.60
2013,07,09,10,16,18.60
2013,07,09,10,17,18.70
2013,07,09,10,18,18.70
2013,07,09,10,19,18.70
2013,07,09,10,20,18.70
2013,07,09,10,21,18.70
2013,07,09,10,22,18.70
2013,07,09,10,23,18.80
2013,07,09,10,24,18.80
2013,07,09,10,25,18.80
2013,07,09,10,26,18.80
2013,07,09,10,27,18.90
2013,07,09,10,28,18.90
2013,07,09,10,29,19.00
2013,07,09,10,30,19.10
2013,07,09,10,31,19.10
2013,07,09,10,32,19.20
2013,07,09,10,33,19.20
2013,07,09,10,34,19.30
2013,07,09,10,35,19.30
2013,07,09,10,36,19.30
2013,07,09,10,37,19.30
2013,07,09,10,38,19.30
2013,07,09,10,39,19.20
2013,07,09,10,40,19.10
2013,07,09,10,41,19.00
2013,07,09,10,42,18.80
2013,07,09,10,43,18.70
2013,07,09,10,44,18.60
2013,07,09,10,45,18.50
2013,07,09,10,46,18.30
2013,07,09,10,47,18.20
2013,07,09,10,48,18.10
2013,07,09,10,49,18.00
2013,07,09,10,50,17.90
2013,07,09,10,51,17.80
2013,07,09,10,52,17.80
2013,07,09,10,53,17.70
2013,07,09,10,54,17.70
2013,07,09,10,55,17.70
2013,07,09,10,56,17.60
2013,07,09,10,57,17.60
2013,07,09,10,58,17.60
2013,07,09,10,59,17.60
2013,07,09,11,00,17.60
2013,07,09,11,01,17.50
2013,07,09,11,02,17.50
2013,07,09,11,03,17.40
2013,07,09,11,04,17.40
2013,07,09,11,05,17.30
2013,07,09,11,06,17.30
2013,07,09,11,07,17.30
2013,07,09,11,08,17.30
2013,07,09,11,09,17.30
2013,07,09,11,10,17.20
2013,07,09,11,11,17.20
2013,07,09,11,12,17.20
2013,07,09,11,13,17.20
2013,07,09,11,14,17.30
2013,07,09,11,15,17.30
2013,07,09,11,16,17.40
2013,07,09,11,17,17.40
2013,07,09,11,18,17.40
2013,07,09,11,19,17.40
2013,07,09,11,20,17.50
2013,07,09,11,21,17.50
2013,07,09,11,22,17.50
2013,07,09,11,23,17.50
2013,07,09,11,24,17.60
2013,07,09,11,25,17.70
2013,07,09,11,26,17.70
2013,07,09,11,27,17.70
2013,07,09,11,28,17.70
2013,07,09,11,29,17.80
2013,07,09,11,30,17.80
2013,07,09,11,31,17.80
2013,07,09,11,32,17.80
2013,07,09,11,33,17.80
2013,07,09,11,34,17.80
2013,07,09,11,35,17.70
2013,07,09,11,36,17.70
2013,07,09,11,37,17.70
2013,07,09,11,38,17.70
2013,07,09,11,39,17.70
2013,07,09,11,40,17.70
2013,07,09,11,41,17.80
2013,07,09,11,42,17.80
2013,07,09,11,43,17.90
2013,07,09,11,44,18.00
2013,07,09,11,45,18.00
2013,07,09,11,46,18.10
2013,07,09,11,47,18.20
2013,07,09,11,48,18.20
2013,07,09,11,49,18.30
2013,07,09,11,50,18.30
2013,07,09,11,51,18.30
2013,07,09,11,52,18.30
2013,07,09,11,53,18.40
2013,07,09,11,54,18.50
2013,07,09,11,55,18.50
2013,07,09,11,56,18.50
2013,07,09,11,57,18.40
2013,07,09,11,58,18.40
2013,07,09,11,59,18.40
2013,07,09,12,00,18.50
2013,07,09,12,01,18.50
2013,07,09,12,02,18.60
2013,07,09,12,03,18.70
2013,07,09,12,04,18.70
2013,07,09,12,05,18.70
2013,07,09,12,06,18.70
2013,07,09,12,07,18.70
2013,07,09,12,08,18.70
2013,07,09,12,09,18.70
2013,07,09,12,10,18.70
2013,07,09,12,11,18.80
2013,07,09,12,12,18.80
2013,07,09,12,13,18.70
2013,07,09,12,14,18.60
2013,07,09,12,15,18.50
2013,07,09,12,16,18.50
2013,07,09,12,17,18.40
2013,07,09,12,18,18.50
2013,07,09,12,19,18.60
2013,07,09,12,20,18.60
2013,07,09,12,21,18.70
2013,07,09,12,22,18.70
2013,07,09,12,23,18.70
2013,07,09,12,24,18.80
2013,07,09,12,25,18.80
2013,07,09,12,26,18.80
2013,07,09,12,27,18.80
2013,07,09,12,28,18.80
2013,07,09,12,29,18.80
2013,07,09,12,30,18.80
2013,07,09,12,31,18.70
2013,07,09,12,32,18.80
2013,07,09,12,33,18.80
2013,07,09,12,34,18.90
2013,07,09,12,35,18.90
2013,07,09,12,36,19.00
2013,07,09,12,37,18.90
2013,07,09,12,38,18.90
2013,07,09,12,39,18.80
2013,07,09,12,40,18.70
2013,07,09,12,41,18.60
2013,07,09,12,42,18.60
2013,07,09,12,43,18.60
2013,07,09,12,44,18.60
2013,07,09,12,45,18.70
2013,07,09,12,46,18.70
2013,07,09,12,47,18.70
2013,07,09,12,48,18.70
2013,07,09,12,49,18.70
2013,07,09,12,50,18.60
2013,07,09,12,51,18.60
2013,07,09,12,52,18.60
2013,07,09,12,53,18.60
2013,07,09,12,54,18.60
2013,07,09,12,55,18.60
2013,07,09,12,56,18.60
2013,07,09,12,57,18.60
2013,07,09,12,58,18.60
2013,07,09,12,59,18.60
2013,07,09,13,00,18.60
2013,07,09,13,01,18.70
2013,07,09,13,02,18.70
2013,07,09,13,03,18.80
2013,07,09,13,04,18.80
2013,07,09,13,05,18.80
2013,07,09,13,06,18.90
2013,07,09,13,07,18.90
2013,07,09,13,08,18.90
2013,07,09,13,09,18.90
2013,07,09,13,10,18.90
2013,07,09,13,11,18.90
2013,07,09,13,12,18.80
2013,07,09,13,13,18.70
2013,07,09,13,14,18.60
2013,07,09,13,15,18.50
2013,07,09,13,16,18.40
2013,07,09,13,17,18.30
2013,07,09,13,18,18.30
2013,07,09,13,19,18.20
2013,07,09,13,20,18.20
2013,07,09,13,21,18.10
2013,07,09,13,22,18.10
2013,07,09,13,23,18.10
2013,07,09,13,24,18.10
2013,07,09,13,25,18.10
2013,07,09,13,26,18.10
2013,07,09,13,27,18.20
2013,07,09,13,28,18.20
2013,07,09,13,29,18.20
2013,07,09,13,30,18.30
2013,07,09,13,31,18.40
2013,07,09,13,32,18.50
2013,07,09,13,33,18.60
2013,07,09,13,34,18.60
2013,07,09,13,35,18.60
2013,07,09,13,36,18.40
2013,07,09,13,37,18.40
2013,07,09,13,38,18.30
2013,07,09,13,39,18.20
2013,07,09,13,40,18.20
2013,07,09,13,41,18.10
2013,07,09,13,42,18.00
2013,07,09,13,43,17.80
2013,07,09,13,44,17.70
2013,07,09,13,45,17.50
2013,07,09,13,46,17.40
2013,07,09,13,47,17.30
2013,07,09,13,48,17.30
2013,07,09,13,49,17.20
2013,07,09,13,50,17.20
2013,07,09,13,51,17.20
2013,07,09,13,52,17.10
2013,07,09,13,53,17.00
2013,07,09,13,54,16.90
2013,07,09,13,55,16.90
2013,07,09,13,56,16.80
2013,07,09,13,57,16.80
2013,07,09,13,58,16.80
2013,07,09,13,59,16.80
2013,07,09,14,00,16.80
2013,07,09,14,01,16.80
2013,07,09,14,02,16.80
2013,07,09,14,03,16.70
2013,07,09,14,04,16.70
2013,07,09,14,05,16.70
2013,07,09,14,06,16.70
2013,07,09,14,07,16.70
2013,07,09,14,08,16.70
2013,07,09,14,09,16.70
2013,07,09,14,10,16.80
2013,07,09,14,11,16.90
2013,07,09,14,12,16.90
2013,07,09,14,13,16.90
2013,07,09,14,14,16.90
2013,07,09,14,15,16.80
2013,07,09,14,16,16.70
2013,07,09,14,17,16.60
2013,07,09,14,18,16.60
2013,07,09,14,19,16.60
2013,07,09,14,20,16.60
2013,07,09,14,21,16.60
2013,07,09,14,22,16.60
2013,07,09,14,23,16.50
2013,07,09,14,24,16.50
2013,07,09,14,25,16.50
2013,07,09,14,26,16.50
2013,07,09,14,27,16.50
2013,07,09,14,28,16.50
2013,07,09,14,29,16.50
2013,07,09,14,30,16.40
2013,07,09,14,31,16.40
2013,07,09,14,32,16.40
2013,07,09,14,33,16.30
2013,07,09,14,34,16.30
2013,07,09,14,35,16.30
2013,07,09,14,36,16.30
2013,07,09,14,37,16.30
2013,07,09,14,38,16.30
2013,07,09,14,39,16.20
2013,07,09,14,40,16.10
2013,07,09,14,41,16.00
2013,07,09,14,42,15.90
2013,07,09,14,43,15.80
2013,07,09,14,44,15.70
2013,07,09,14,45,15.60
2013,07,09,14,46,15.60
2013,07,09,14,47,15.50
2013,07,09,14,48,15.50
2013,07,09,14,49,15.40
2013,07,09,14,50,15.40
2013,07,09,14,51,15.50
2013,07,09,14,52,15.60
2013,07,09,14,53,15.70
2013,07,09,14,54,15.80
2013,07,09,14,55,15.90
2013,07,09,14,56,16.00
2013,07,09,14,57,16.20
2013,07,09,14,58,16.30
2013,07,09,14,59,16.40
2013,07,09,15,00,16.40
2013,07,09,15,01,16.30
2013,07,09,15,02,16.30
2013,07,09,15,03,16.30
2013,07,09,15,04,16.30
2013,07,09,15,05,16.40
2013,07,09,15,06,16.40
2013,07,09,15,07,16.40
2013,07,09,15,08,16.50
2013,07,09,15,09,16.50
2013,07,09,15,10,16.60
2013,07,09,15,11,16.60
2013,07,09,15,12,16.60
2013,07,09,15,13,16.70
2013,07,09,15,14,16.70
2013,07,09,15,15,16.70
2013,07,09,15,16,16.70
2013,07,09,15,17,16.70
2013,07,09,15,18,16.60
2013,07,09,15,19,16.50
2013,07,09,15,20,16.30
2013,07,09,15,21,16.10
2013,07,09,15,22,15.80
2013,07,09,15,23,15.70
2013,07,09,15,24,15.50
2013,07,09,15,25,15.30
2013,07,09,15,26,15.20
2013,07,09,15,27,15.10
2013,07,09,15,28,15.00
2013,07,09,15,29,14.90
2013,07,09,15,30,14.90
2013,07,09,15,31,14.90
2013,07,09,15,32,14.90
2013,07,09,15,33,14.80
2013,07,09,15,34,14.80
2013,07,09,15,35,14.80
2013,07,09,15,36,14.90
2013,07,09,15,37,14.90
2013,07,09,15,38,15.00
2013,07,09,15,39,15.00
2013,07,09,15,40,15.10
2013,07,09,15,41,15.10
2013,07,09,15,42,15.10
2013,07,09,15,43,15.20
2013,07,09,15,44,15.20
2013,07,09,15,45,15.30
2013,07,09,15,46,15.40
2013,07,09,15,47,15.60
2013,07,09,15,48,15.60
2013,07,09,15,49,15.70
2013,07,09,15,50,15.80
2013,07,09,15,51,16.00
2013,07,09,15,52,16.10
2013,07,09,15,53,16.30
2013,07,09,15,54,16.40
2013,07,09,15,55,16.50
2013,07,09,15,56,16.60
2013,07,09,15,57,16.60
2013,07,09,15,58,16.60
2013,07,09,15,59,16.70
2013,07,09,16,00,16.70
2013,07,09,16,01,16.80
2013,07,09,16,02,16.70
2013,07,09,16,03,16.70
2013,07,09,16,04,16.70
2013,07,09,16,05,16.70
2013,07,09,16,06,16.80
2013,07,09,16,07,16.90
2013,07,09,16,08,17.00
2013,07,09,16,09,17.00
2013,07,09,16,10,17.00
2013,07,09,16,11,17.00
2013,07,09,16,12,17.10
2013,07,09,16,13,17.20
2013,07,09,16,14,17.40
2013,07,09,16,15,17.40
2013,07,09,16,16,17.50
2013,07,09,16,17,17.60
2013,07,09,16,18,17.60
2013,07,09,16,19,17.60
2013,07,09,16,20,17.50
2013,07,09,16,21,17.40
2013,07,09,16,22,17.40
2013,07,09,16,23,17.40
2013,07,09,16,24,17.30
2013,07,09,16,25,17.20
2013,07,09,16,26,17.10
2013,07,09,16,27,17.00
2013,07,09,16,28,17.00
2013,07,09,16,29,16.90
2013,07,09,16,30,16.90
2013,07,09,16,31,16.90
2013,07,09,16,32,16.90
2013,07,09,16,33,17.00
2013,07,09,16,34,17.00
2013,07,09,16,35,17.10
2013,07,09,16,36,17.10
2013,07,09,16,37,17.10
2013,07,09,16,38,17.10
2013,07,09,16,39,17.10
2013,07,09,16,40,17.20
2013,07,09,16,41,17.20
2013,07,09,16,42,17.30
2013,07,09,16,43,17.30
2013,07,09,16,44,17.40
2013,07,09,16,45,17.40
2013,07,09,16,46,17.50
2013,07,09,16,47,17.50
2013,07,09,16,48,17.50
2013,07,09,16,49,17.50
2013,07,09,16,50,17.50
2013,07,09,16,51,17.60
2013,07,09,16,52,17.70
2013,07,09,16,53,17.80
2013,07,09,16,54,18.00
2013,07,09,16,55,18.20
2013,07,09,16,56,18.40
2013,07,09,16,57,18.60
2013,07,09,16,58,18.80
2013,07,09,16,59,19.10
2013,07,09,17,00,19.30
2013,07,09,17,01,19.50
2013,07,09,17,02,19.70
2013,07,09,17,03,19.90
2013,07,09,17,04,20.10
2013,07,09,17,05,20.30
2013,07,09,17,06,20.40
2013,07,09,17,07,20.50
2013,07,09,17,08,20.60
2013,07,09,17,09,20.70
2013,07,09,17,10,20.70
2013,07,09,17,11,20.70
2013,07,09,17,12,20.70
2013,07,09,17,13,20.70
2013,07,09,17,14,20.70
2013,07,09,17,15,20.60
2013,07,09,17,16,20.60
2013,07,09,17,17,20.50
2013,07,09,17,18,20.50
2013,07,09,17,19,20.50